Weather Roundup
Issued by NWS

Home | Current Version | Previous Version | Text Only | Print | Product List | Glossary On
Versions: 1 2 3 4 5 6 7 8 9 10 11 12 13 14 15 16 17 18 19 20 21 22 23 24 25 26 27 28 29 30 31 32 33 34 35 36 37 38 39 40 41 42 43 44 45 46 47 48 49 50
761
NZUS93 KARX 262110
HRRWXR

CURRENT HOURLY OBSERVATIONS ACROSS
MUCH OF THE UPPER MISSISSIPPI VALLEY
NATIONAL WEATHER SERVICE LA CROSSE WI
400 PM CDT MON SEP 26 2016


...SOUTHEAST MINNESOTA...


CITY           SKY/WX    TMP DP  RH WIND       PRES   REMARKS
ROCHESTER      SUNNY     67  32  27 W22G38    29.92S
ROCHESTER/MAYO FAIR      65  29  25 W23G39    29.90R
WINONA         MOSUNNY   64  36  34 NW21G31   29.89S
AUSTIN         SUNNY     64  30  27 W22G33    29.95S
ALBERT LEA     SUNNY     66  30  26 W12G29    29.96F
DODGE CENTER   SUNNY     66  30  26 NW21G31   29.93R
PRESTON        SUNNY     65  31  28 W30G36    29.93S
OWATONNA       SUNNY     66  28  24 W23G32    29.94S
FARIBAULT      SUNNY     66  32  28 W18G31    29.93S
$$

...ELSEWHERE IN MINNESOTA...


CITY           SKY/WX    TMP DP  RH WIND       PRES   REMARKS
MINNEAPOLIS    MOSUNNY   65  34  31 NW22G37   29.89S
INTNL FALLS    LGT RAIN  50  48  93 W14G23    29.69R
DULUTH         LGT RAIN  52  44  74 W21G32    29.73S
RED WING       SUNNY     66  32  28 NW18G26   29.88S
REDWOOD FALLS  SUNNY     68  32  26 W29G35    29.97F
MANKATO        NOT AVBL
WORTHINGTON    SUNNY     67  32  27 W23G31    30.04F
FAIRMONT       SUNNY     68  34  28 NW25      30.00F
$$

...SOUTHWEST WISCONSIN...


CITY           SKY/WX    TMP DP  RH WIND       PRES   REMARKS
LA CROSSE      SUNNY     70  39  32 W16G24    29.87S
PRAIRIE DU CHI SUNNY     69  30  23 W24G32    29.91F
BOSCOBEL       SUNNY     70  32  24 W23G35    29.91S
LONE ROCK      MOSUNNY   68  32  26 W25G33    29.89F
PLATTEVILLE    SUNNY     68  35  29 W25G31    29.94F
FORT MC COY    PTSUNNY   66  37  34 W20G25    29.88R
CAMP DOUGLAS   SUNNY     63  39  41 W16G31    29.85S
MAUSTON-NEW LI PTCLDY    64  37  37 W13G24    29.85S HAZE
VIROQUA        FAIR      66  32  28 W17G25    29.89F
WIS DELLS      PTSUNNY   66  32  28 W17G28    29.86F
$$

...ELSEWHERE IN WISCONSIN...


CITY           SKY/WX    TMP DP  RH WIND       PRES   REMARKS
MILWAUKEE      MOSUNNY   67  36  31 W18G28    29.88S
MADISON        PTSUNNY   65  33  30 W18G26    29.87F
GREEN BAY      PTSUNNY   64  42  44 W18G26    29.78S
EAU CLAIRE     CLOUDY    61  39  44 W14G29    29.85R
BLACK RVR FLS  MOCLDY    63  34  34 W18G30    29.87R
MEDFORD        CLOUDY    55  40  58 W14G22    29.80S
WAUSAU         CLOUDY    56  38  50 W18G29    29.79R
WIS RAPIDS     MOSUNNY   61  38  42 NW21G33   29.85R
MARSHFIELD     CLOUDY    59  37  44 W15G32    29.83R
RICE LAKE      CLOUDY    60  37  42 W16G26    29.84S
$$

...NORTHEAST IOWA...


CITY           SKY/WX    TMP DP  RH WIND       PRES   REMARKS
WATERLOO       SUNNY     69  32  25 W17G30    29.98F
DUBUQUE        SUNNY     67  32  27 W25G33    29.97F
DECORAH        SUNNY     66  32  28 W10G25    29.93S
MASON CITY     SUNNY     68  32  26 W24G35    30.01F
CHARLES CITY   SUNNY     68  30  24 W21       29.99R
OELWEIN        SUNNY     68  34  28 W23G31    29.98F
$$

...ELSEWHERE IN IOWA...


CITY           SKY/WX    TMP DP  RH WIND       PRES   REMARKS
DES MOINES     MOSUNNY   74  37  26 W22G32    30.06F
IOWA CITY      SUNNY     71  36  27 NW20G32   30.03F
FORT DODGE     SUNNY     70  39  32 W16G29    30.05F
MARSHALLTOWN   SUNNY     70  36  28 W25G37    30.02F
CEDAR RAPIDS   SUNNY     70  38  31 W25G32    30.00F
$$

...NORTHERN ILLINOIS...


CITY           SKY/WX    TMP DP  RH WIND       PRES   REMARKS
CHICAGO-OHARE  MOSUNNY   69  34  27 W18G29    29.92F
CHICAGO-MIDWAY MOSUNNY   71  32  23 W23G32    29.93S
MOLINE         SUNNY     72  33  24 W20G30    30.00F
ROCKFORD       MOSUNNY   69  35  28 W21G35    29.95F
PEORIA         SUNNY     72  31  22 W17G24    30.03S
$$

NOTE: "FAIR" INDICATES FEW OR NO CLOUDS BELOW 12,000 FEET WITH NO
SIGNIFICANT WEATHER AND/OR OBSTRUCTIONS TO VISIBILITY. WIND
SPEEDS ARE IN MILES-PER-HOUR.




USA.gov is the U.S. government's official web portal to all federal, state and local government web resources and services.